User: anonymous   Login
Location: Unspecified
(0.0000°N, 0.0000°E)
Time: 05:49:53
(UTC+00:00)
Language:

STARLINK-3236 - Orbit

View from above orbital plane
View from above orbital plane
View from above satellite
View from above satellite

Ground track
Ground track

The orbit is defined by the following mean orbital elements,

1 49750U          26145.43360803 +.00000000 +00000-0 +11356-4 0 00003
2 49750  53.2116 164.6146 0001181 106.0012 254.1110 15.08840848    04
Epoch (UTC): 25 May 2026 10:24:23
Eccentricity: 0.0001181
inclination: 53.2116°
perigee height: 539 km
apogee height: 541 km
right ascension of ascending node: 164.6146°
argument of perigee: 106.0012°
revolutions per day: 15.08840848
mean anomaly at epoch: 254.1110°

The dashed part of the orbit path shows where the satellite is in the earth's shadow,  

DLR